Regional Weather Roundup
Issued by NWS Cleveland, OH

Home | Current Version | Previous Version | Text Only | Print | Product List | Glossary Off
Versions: 1 2 3 4 5 6 7 8 9 10 11 12 13 14 15 16 17 18 19 20 21 22 23 24 25 26 27 28 29 30 31 32 33 34 35 36 37 38 39 40 41 42 43 44 45 46 47 48 49 50

000
ASUS41 KCLE 281600
RWRCLE
OHIO REGIONAL WEATHER ROUNDUP
NATIONAL WEATHER SERVICE WILMINGTON, OH
1200 PM EDT SUN MAY 28 2017

NOTE: "FAIR" INDICATES FEW OR NO CLOUDS BELOW 12,000 FEET WITH NO
SIGNIFICANT WEATHER AND/OR OBSTRUCTIONS TO VISIBILITY.

OHZ001>008-015>018-024>027-034-035-043-044-281700-
   NORTHWEST OHIO

CITY           SKY/WX    TMP DP  RH WIND       PRES   REMARKS
DEFIANCE       PTSUNNY   71  64  78 VRB5      29.74S
FINDLAY        CLOUDY    71  65  81 S10       29.73F HAZE
TOLEDO EXPRESS PTSUNNY   72  65  78 VRB7      29.73F
TOLEDO EXEC    FAIR      75  66  73 SE5       29.73F
LIMA           CLOUDY    69  66  90 S8        29.75R
$$

OHZ009>014-019>023-028>033-038-089-281700-
   NORTHEAST OHIO

CITY           SKY/WX    TMP DP  RH WIND       PRES   REMARKS
CLE-HOPKINS    PTSUNNY   78  65  63 S9        29.76F
CLE-LAKEFRONT  FAIR      65  59  81 NE14      29.74F
CUY CO. ARPT   PTSUNNY   79  63  57 S7        29.78F
LORAIN-ELYRIA  FAIR      75  63  66 S10       29.75F
ASHTABULA      FAIR      74  60  61 S7        29.80S
AKRON-CANTON   CLOUDY    71  64  78 S8        29.79F HAZE
WOOSTER        CLOUDY    68  64  88 S10       29.79F
MANSFIELD      CLOUDY    70  65  84 S13       29.78F
YOUNGSTOWN     PTSUNNY   74  62  66 SE9       29.79F
$$

OHZ042-051>053-060>062-070>072-077>081-281700-
  SOUTHWEST OHIO

CITY           SKY/WX    TMP DP  RH WIND       PRES   REMARKS
CINC-COVINGTON CLOUDY    71  63  75 SW13      29.80R
CINC-LUNKEN    PTSUNNY   72  65  78 S15       29.80R
HAMILTON       FAIR      74  65  73 SW8       29.79R
DAYTON         NOT AVBL
WRIGHT-PAT AFB FAIR      73  65  75 S10       29.76S
DAYTON GENERAL FAIR      72  62  71 SW13      29.77S
WILMINGTON     FAIR      71  64  78 S15       29.78F
$$

OHZ036-037-039>041-045>050-054>059-063>069-073>076-082>088-281700-
  CENTRAL AND SOUTHEAST OHIO

CITY           SKY/WX    TMP DP  RH WIND       PRES   REMARKS
COLUMBUS       CLOUDY    74  64  71 SW13      29.78S
OSU AIRPORT    PTSUNNY   74  66  76 S13       29.77S
BOLTON FIELD   CLOUDY    73  66  78 SW12G24   29.79S
RICKENBACK AFB NOT AVBL
NEWARK         FAIR      75  64  68 S10       29.77F
MARION         CLOUDY    72  64  76 S12       29.76F
LANCASTER      PTSUNNY   76  65  68 S9        29.80S
ZANESVILLE     FAIR      76  64  66 SW9       29.79F
NEW PHILLY     CLOUDY    69  66  90 S7        29.80F
$$



USA.gov is the U.S. government's official web portal to all federal, state and local government web resources and services.